Theta_e
292 292 292 293 293 293 294 295 295 295 295 296 296 297 298 300 301 300 300 305 297 290 293 291 291 287 287 287 282 280 279 278 277 277 277 277 277 275 275 274 269 269 268 267 268 265 266 280 277 276 282 282 282 281
292 292 292 292 292 292 293 293 294 294 294 295 295 296 297 298 299 301 293 300 302 292 290 297 297 296 295 293 291 283 285 279 281 279 279 282 278 276 276 275 277 272 276 271 274 274 280 281 281 282 281 282 281 282
291 291 291 291 292 292 292 292 293 293 293 294 294 295 296 296 298 297 295 297 296 289 289 289 291 297 299 298 295 283 284 285 283 287 283 283 278 279 274 274 274 276 280 274 275 279 280 281 283 284 283 282 283 283
291 291 291 291 291 291 291 292 292 292 292 293 293 294 294 295 295 296 292 295 295 286 284 286 296 294 299 298 295 294 288 287 287 286 282 279 278 282 279 280 280 280 278 277 276 280 280 281 283 284 284 283 283 283
290 290 291 291 291 291 291 291 291 292 292 292 293 293 293 293 294 294 293 293 293 288 283 285 287 292 297 297 294 293 288 285 283 281 280 278 281 279 279 278 276 279 276 277 278 281 283 285 285 285 283 283 284 283
291 290 290 290 290 290 291 291 291 291 291 292 292 292 293 292 292 289 283 291 292 291 284 282 287 287 294 294 293 291 289 285 285 283 282 283 283 282 277 275 285 285 285 286 285 284 284 285 285 284 284 284 283 283
291 291 291 290 291 291 291 291 291 291 291 291 291 292 292 292 289 284 282 290 294 291 284 281 283 285 291 290 289 288 287 285 286 283 282 282 279 282 280 279 288 289 288 285 286 286 284 285 284 282 283 284 280 280
291 291 291 291 291 291 291 291 290 290 290 291 291 291 291 292 290 284 288 292 292 285 283 279 276 280 287 284 283 284 283 284 283 283 283 281 279 281 277 283 288 289 286 285 285 286 287 287 281 283 280 278 278 280
291 291 290 290 290 290 290 290 290 290 290 290 291 290 288 285 282 281 290 292 291 285 279 282 276 275 285 283 283 283 284 278 284 281 281 281 278 276 280 284 286 287 287 285 285 284 284 282 284 284 278 277 279 281
291 291 291 290 290 289 288 289 289 290 290 290 287 281 274 280 290 289 284 278 279 282 281 275 283 277 284 281 280 280 282 279 275 278 283 279 279 284 285 285 286 283 287 286 281 277 281 278 282 283 282 283 283 282
291 290 289 289 288 287 288 289 290 289 289 284 279 274 280 289 284 280 274 275 274 274 279 277 278 278 284 279 279 282 278 280 274 277 277 276 274 282 287 287 288 285 285 286 288 286 284 283 284 283 281 283 283 282
290 289 288 288 288 288 287 288 289 286 283 282 280 282 281 276 276 273 270 269 270 267 273 277 279 283 282 284 281 279 278 278 274 280 276 274 279 285 287 287 287 287 287 287 287 286 286 283 285 284 283 281 282 283
288 288 288 288 286 286 287 288 288 288 286 280 275 270 274 273 268 265 267 262 264 274 272 275 278 280 281 283 280 278 276 274 280 275 274 275 283 276 278 283 285 287 288 288 288 288 286 286 284 282 284 283 278 281
287 288 288 288 287 287 286 287 287 286 280 271 267 263 264 267 262 266 270 271 275 270 269 271 271 279 280 279 279 274 277 275 271 271 271 271 263 263 266 267 273 274 276 277 278 278 280 281 284 282 282 284 279 280
287 288 287 286 286 286 287 287 287 282 278 272 266 259 261 266 266 270 273 272 263 266 267 270 272 279 278 276 277 272 271 269 272 270 271 263 259 260 259 260 261 263 267 270 274 276 280 281 279 281 277 278 280 273
287 286 285 287 286 286 287 285 281 278 276 272 272 266 266 264 263 267 262 263 259 259 264 268 268 277 277 275 270 270 269 268 266 258 257 258 256 257 257 257 259 262 263 266 268 271 274 276 277 277 268 267 267 269
284 280 285 285 286 286 286 277 275 273 270 272 269 262 258 260 258 254 255 255 258 259 265 263 265 259 263 266 268 250 252 251 250 252 255 254 254 255 256 257 259 260 262 263 266 268 270 269 267 266 267 263 262 261
276 278 282 282 283 281 270 267 268 271 266 263 260 259 255 256 255 253 253 255 255 255 258 257 257 253 249 246 248 248 249 251 252 253 253 253 254 255 258 258 259 260 261 263 266 266 268 263 264 268 266 265 263 261
276 277 280 279 281 270 263 260 261 260 261 263 263 262 259 256 256 256 255 255 256 256 254 252 248 246 246 249 248 248 249 249 249 250 252 254 256 256 256 257 258 259 261 263 265 266 267 265 265 266 266 266 267 267
276 275 275 274 274 266 258 255 261 259 255 258 261 259 257 254 253 253 254 253 253 251 248 247 246 247 248 249 250 249 250 251 251 250 252 254 255 255 255 256 257 260 264 265 268 264 262 263 262 263 264 266 268 269
267 267 267 266 260 257 253 252 254 255 255 254 257 256 254 255 252 250 250 253 250 247 246 248 248 249 251 251 251 251 251 252 251 252 252 252 255 255 256 259 261 263 263 264 266 266 261 262 261 262 263 266 266 265
261 266 256 260 256 255 252 253 252 256 256 254 253 254 251 250 250 251 252 249 247 248 248 248 249 249 249 249 250 251 252 253 254 254 255 255 254 255 257 258 261 263 262 262 266 266 263 261 261 262 265 266 266 265
260 257 252 251 251 249 244 253 251 252 249 249 250 247 247 249 251 254 249 249 248 251 251 250 250 250 249 251 252 253 253 253 252 252 253 254 256 258 259 259 262 263 261 261 263 265 261 263 263 263 264 265 266 265
258 248 245 244 245 243 246 245 249 250 249 247 246 245 245 245 250 248 244 245 247 250 250 249 249 248 249 250 250 251 252 253 252 253 254 254 256 256 257 259 262 264 262 262 264 265 263 263 265 264 265 265 265 265
246 243 244 241 243 242 241 242 241 244 242 246 244 243 244 245 245 241 240 247 249 248 249 249 249 248 247 248 250 251 253 253 251 250 253 256 256 255 256 258 259 261 262 261 262 266 264 267 268 266 265 265 264 264
240 240 240 239 242 242 240 239 238 240 243 243 243 245 247 245 241 238 244 248 248 248 248 248 247 247 248 249 249 250 251 253 253 251 254 256 256 254 253 254 255 258 262 262 265 267 268 267 266 266 265 264 264 263
241 240 241 242 240 241 239 240 240 239 242 241 242 241 241 237 236 242 246 249 249 250 251 251 250 249 249 250 251 252 253 253 252 253 255 256 257 255 254 254 254 258 262 262 264 265 263 263 262 262 261 261 262 261
237 236 236 241 241 244 241 241 240 240 242 244 243 238 236 237 241 246 248 252 252 252 251 252 252 252 251 252 252 252 252 252 255 257 258 258 257 256 255 256 258 263 262 261 261 261 261 260 259 259 258 257 257 258
237 237 237 239 241 246 244 244 245 247 248 246 243 242 242 246 249 249 252 253 252 251 250 249 250 252 251 252 252 252 252 250 250 250 250 250 251 252 254 255 257 258 259 262 264 261 259 258 257 257 256 256 256 256
237 238 238 240 242 245 246 247 246 248 249 250 249 249 249 250 252 253 253 252 250 249 250 250 250 250 249 249 248 249 252 251 250 251 248 249 250 252 253 254 255 256 258 258 257 258 261 258 258 256 255 255 254 253
236 236 237 238 243 249 249 249 249 248 249 250 251 249 250 251 252 253 252 252 251 251 250 249 249 250 249 249 247 247 247 250 250 251 254 253 253 252 253 254 255 255 256 256 255 255 254 254 253 252 252 251 251 251
235 236 236 237 240 244 246 246 247 248 250 249 249 250 251 250 250 252 252 251 250 249 249 249 248 248 250 251 250 250 250 249 249 251 255 253 252 253 253 254 254 254 254 253 253 253 252 252 251 251 250 249 249 249
234 234 235 237 242 244 243 242 244 245 247 248 248 249 250 250 250 253 253 253 251 249 249 249 249 250 250 251 250 250 250 250 251 253 257 257 254 253 252 252 253 252 252 251 251 251 250 249 249 248 248 247 247 247
Wind_Speed
26 24 25 26 28 26 24 25 24 25 23 24 26 26 24 21 22 13 5 18 15 5 10 13 17 10 6 12 10 10 7 2 3 6 7 7 7 9 4 10 12 14 14 7 6 6 19 12 7 10 9 3 3 5
24 25 25 26 28 28 26 24 24 24 26 25 26 27 26 23 18 15 7 7 8 9 5 10 18 20 26 22 14 17 5 9 12 7 6 5 6 4 7 8 8 8 12 13 19 16 4 23 10 19 1 2 3 4
28 26 27 24 28 26 25 26 24 26 25 25 25 24 24 22 21 17 4 6 6 5 6 6 15 23 18 12 14 11 4 8 7 3 5 4 5 6 9 10 4 8 8 6 4 11 17 17 21 12 7 11 9 5
32 31 30 27 24 25 25 26 26 27 26 25 24 25 23 22 20 17 7 3 4 1 6 8 9 16 19 12 18 10 11 6 9 4 4 5 5 8 6 3 9 9 14 11 11 15 10 11 17 25 14 13 12 11
33 33 30 34 27 25 27 27 28 28 27 26 22 23 24 22 20 14 8 5 7 6 3 2 1 8 16 21 17 11 12 12 7 6 5 6 4 5 1 2 8 9 10 13 14 8 14 10 15 19 16 19 18 16
30 32 32 31 31 28 28 26 26 29 26 26 22 23 23 20 16 5 4 9 13 9 3 5 2 6 15 20 21 21 15 8 6 7 5 4 6 6 6 8 20 18 18 21 16 9 10 9 8 7 11 13 12 12
34 29 30 30 29 29 30 28 25 24 25 25 21 23 22 22 9 7 4 1 8 4 4 4 5 4 11 15 7 7 11 5 5 5 7 6 4 8 3 8 34 16 21 20 16 11 16 15 12 7 10 9 5 6
32 33 31 30 30 29 26 28 20 19 17 21 19 18 18 17 17 9 10 27 10 2 5 7 4 4 7 5 6 5 5 3 4 4 5 5 6 4 6 31 40 15 8 14 18 19 23 13 4 11 4 4 7 10
29 29 27 25 21 15 18 19 17 17 16 16 17 13 5 3 3 5 14 21 5 5 6 4 11 9 9 4 4 4 4 4 3 6 5 8 6 9 24 24 24 18 18 8 13 15 16 17 18 18 6 7 10 12
28 23 22 18 14 14 7 9 13 16 16 17 7 3 2 5 9 10 4 4 7 7 6 7 6 4 12 6 5 7 5 5 6 6 6 6 8 24 17 24 16 7 15 13 9 8 14 9 15 19 15 13 12 12
18 13 8 9 9 6 7 9 12 9 6 3 2 3 3 6 0 4 5 6 5 6 5 7 12 5 3 11 8 5 6 7 8 7 10 6 6 24 31 32 20 11 9 13 17 12 11 10 13 11 10 12 12 13
21 16 12 10 7 8 2 6 8 5 1 4 4 2 1 1 3 5 5 4 3 7 4 10 7 6 2 2 5 6 7 7 8 12 7 6 13 28 23 20 14 13 16 19 16 20 19 13 13 10 9 9 12 13
15 12 10 10 6 4 4 5 9 11 8 3 4 2 2 3 7 4 5 5 3 6 10 10 10 7 3 4 3 7 8 6 10 8 6 7 13 5 6 5 8 11 16 19 21 18 13 15 10 10 13 8 6 8
9 10 10 9 7 4 3 3 6 9 4 3 4 3 4 3 4 3 1 2 3 4 7 9 6 8 6 7 3 7 4 6 6 9 8 5 7 8 7 9 10 9 9 6 4 5 8 10 12 10 11 9 7 9
11 13 13 8 3 1 2 4 8 3 2 1 3 5 5 6 3 1 2 3 5 7 6 8 7 7 6 5 5 3 6 6 6 6 3 6 9 10 12 9 11 10 9 7 8 8 9 7 8 8 6 5 7 5
10 11 10 12 8 5 6 4 3 2 1 3 3 3 4 3 5 5 8 3 7 7 6 2 7 6 7 6 6 9 10 7 3 6 7 9 11 11 13 12 10 11 12 10 9 9 11 11 8 6 1 3 4 5
13 4 18 15 15 8 13 3 2 2 1 2 3 5 3 4 3 3 6 5 8 6 2 1 6 4 10 7 7 9 7 5 10 9 8 11 12 14 13 12 12 13 13 11 11 10 11 8 5 2 4 3 4 3
6 8 16 18 10 3 4 7 4 3 6 5 5 4 3 5 4 4 4 6 6 5 4 3 3 8 5 5 6 5 6 10 9 10 10 12 14 13 9 12 12 13 14 12 11 12 11 5 5 4 3 6 6 3
10 12 18 20 4 5 5 6 5 4 4 3 4 4 4 4 4 5 6 6 2 3 3 5 7 5 4 2 7 10 10 9 12 14 12 13 8 11 13 12 13 12 12 13 12 9 8 6 5 3 4 4 5 5
6 25 24 20 13 5 7 5 5 5 4 3 4 3 3 2 2 4 6 7 4 4 8 7 4 4 6 9 9 10 11 11 11 13 12 9 9 11 12 11 10 13 11 12 9 6 3 4 4 1 2 4 5 5
12 12 18 10 6 9 6 5 4 4 4 3 4 4 3 2 4 6 5 6 6 7 4 3 6 8 9 10 9 9 10 9 9 9 13 14 11 11 11 10 10 8 8 8 8 9 4 3 3 1 2 5 5 4
5 15 6 11 8 6 6 6 3 6 4 3 4 3 3 3 4 5 4 9 5 2 3 6 8 10 12 12 11 10 12 13 12 10 12 11 9 10 10 9 10 8 7 7 7 7 4 4 2 3 4 7 8 6
8 8 8 12 8 12 4 7 5 7 6 7 5 5 4 4 4 4 5 3 2 3 5 7 10 12 12 14 13 11 10 12 9 10 10 9 9 9 8 9 8 6 8 8 7 7 3 2 4 5 4 6 10 10
12 10 9 8 9 7 6 7 5 5 5 5 6 5 5 4 6 4 4 1 1 5 8 11 9 10 9 9 7 9 10 9 9 9 8 9 10 10 9 8 7 4 5 7 8 3 1 2 4 4 5 7 9 11
14 13 9 11 7 9 9 7 8 7 4 6 6 5 5 5 4 5 3 5 8 9 10 10 9 8 10 10 9 9 10 8 9 11 11 7 8 8 7 7 7 7 9 9 8 6 2 4 7 8 8 9 13 13
13 7 6 6 5 5 4 6 5 5 3 5 5 5 4 4 6 3 3 7 7 10 11 10 11 11 10 9 12 12 13 10 9 8 8 5 7 7 9 9 9 7 9 8 7 4 8 10 12 15 13 14 16 15
10 6 5 1 0 2 4 2 2 4 5 5 4 5 4 6 4 4 3 3 8 9 8 8 8 9 10 11 10 9 10 10 9 10 10 7 4 6 6 8 11 10 10 10 8 8 11 12 13 14 15 14 14 13
3 2 2 8 4 1 1 3 4 4 3 3 3 6 3 3 4 3 3 7 9 9 8 8 8 8 9 10 9 9 10 10 10 5 4 3 5 5 11 9 9 16 8 9 9 10 11 13 14 15 16 16 14 13
3 3 1 5 3 3 3 4 3 2 1 1 2 3 3 3 3 3 5 8 7 7 7 9 9 8 8 8 7 7 8 11 15 14 16 9 9 8 12 10 9 9 9 11 20 17 18 15 15 16 17 15 13 13
4 3 4 5 3 3 2 1 3 2 2 2 2 2 2 3 3 1 4 7 6 7 8 8 8 8 9 9 9 11 8 9 10 10 7 8 8 9 9 9 9 9 8 8 11 13 18 15 15 15 16 13 11 12
3 4 4 2 3 1 3 5 3 3 3 3 3 2 3 3 2 1 1 4 5 5 5 6 6 6 8 10 10 10 9 8 14 14 9 6 6 7 8 9 8 9 10 11 12 12 12 14 14 16 17 17 16 14
3 1 1 3 5 5 4 5 3 2 2 1 2 3 2 2 3 3 2 3 3 4 5 5 5 5 7 6 5 4 8 8 10 12 13 9 8 8 7 7 9 10 11 12 12 12 15 16 13 14 14 16 14 14
3 1 2 3 4 4 5 6 3 4 3 2 2 2 2 2 3 1 3 2 2 3 5 6 5 5 5 4 6 6 8 6 10 14 15 15 15 12 8 8 9 10 12 11 11 12 15 17 15 15 14 13 13 12
Wind_Direction
287 287 289 284 278 280 279 276 270 272 268 268 266 269 272 275 270 270 283 212 209 223 210 186 181 158 143 173 164 140 108 201 155 185 189 184 205 196 187 161 175 166 169 187 185 216 270 153 87 189 214 238 196 199
289 292 292 289 282 278 273 278 270 268 272 273 272 264 260 268 295 274 261 267 223 221 228 207 216 204 191 181 180 171 176 157 164 170 194 165 190 167 170 229 171 215 194 178 196 209 208 183 202 220 163 216 231 217
282 283 286 295 282 273 270 267 271 277 267 272 272 267 258 265 268 280 256 246 236 259 262 205 212 220 225 201 160 146 220 159 197 159 134 192 208 155 178 235 135 237 210 228 99 219 233 205 239 258 216 233 240 239
278 281 281 283 281 274 271 273 269 265 272 267 270 270 263 254 258 268 278 328 276 177 230 249 202 213 208 203 193 167 139 123 130 150 149 158 198 187 206 243 205 189 160 195 258 261 301 243 226 239 241 238 247 233
279 272 268 269 266 271 269 264 265 264 263 265 259 263 263 265 269 258 273 254 253 253 262 184 152 217 200 201 199 170 147 136 154 167 183 189 178 152 192 58 247 181 179 194 229 185 210 239 221 233 224 232 234 234
279 278 272 271 270 275 270 275 267 258 257 257 252 251 260 261 253 272 260 222 212 216 271 239 129 170 194 200 203 196 174 164 170 161 183 193 176 176 169 205 246 213 215 214 231 191 212 227 230 203 212 221 221 207
277 267 267 266 269 269 267 273 267 264 252 249 247 247 249 247 235 223 232 218 65 4 240 235 237 195 186 171 187 194 191 174 177 172 191 156 164 184 211 226 250 214 217 220 226 232 257 244 249 225 214 222 186 206
271 268 258 258 264 274 264 263 259 248 249 247 243 250 250 252 254 249 244 268 284 247 259 208 219 157 170 158 153 153 170 162 188 180 156 157 129 184 228 239 250 234 219 218 214 218 238 251 244 249 209 160 209 228
264 258 257 256 266 257 248 245 246 240 237 245 245 248 265 230 222 221 244 249 210 194 280 257 170 187 166 128 136 129 135 174 172 207 188 149 154 200 225 244 246 235 225 225 209 218 233 238 246 252 194 214 221 230
259 244 246 243 223 249 256 256 257 255 251 244 206 185 173 216 218 232 240 220 201 202 194 266 310 183 177 147 151 128 153 192 190 208 137 215 221 242 243 237 233 197 203 204 201 225 229 238 232 246 232 238 234 229
215 203 161 196 185 186 246 248 248 235 210 165 160 168 240 354 78 204 213 223 187 195 204 220 218 246 256 174 157 195 161 162 196 181 180 196 236 235 235 240 233 210 196 210 225 231 220 209 230 226 226 225 227 229
96 113 136 158 174 213 235 286 185 119 146 111 116 93 342 190 240 245 186 259 211 210 227 205 202 164 235 224 146 169 187 177 200 143 183 191 240 237 243 244 239 218 220 231 220 234 235 227 234 235 235 220 216 220
97 105 119 131 104 105 153 167 168 142 99 39 54 21 238 193 221 228 204 262 181 360 22 333 221 156 165 254 180 173 187 188 128 170 188 215 253 22 334 207 192 198 212 227 234 236 247 247 239 212 236 231 199 210
80 85 88 77 57 52 105 110 111 114 73 115 148 248 185 249 248 235 90 15 21 1 355 332 305 212 169 190 188 172 151 134 185 174 202 226 35 333 349 8 17 12 22 15 319 241 235 227 240 226 218 225 182 216
66 73 63 54 75 16 48 6 122 78 124 228 115 214 222 231 276 204 59 76 32 306 320 325 274 242 167 167 174 168 168 190 187 176 169 14 14 355 343 358 5 339 335 340 338 325 306 271 247 243 217 191 191 174
95 62 18 23 19 34 75 79 61 90 166 169 225 313 312 37 319 38 6 43 5 326 275 218 271 250 206 154 167 187 170 184 173 12 352 353 350 347 337 335 347 324 321 325 319 316 305 290 271 252 177 177 176 148
56 39 3 7 356 43 37 54 57 146 255 245 124 54 335 42 34 67 352 360 319 299 68 301 295 345 302 320 125 14 22 6 328 324 340 335 332 323 318 323 336 317 313 318 316 312 296 283 276 132 186 227 108 111
40 342 2 355 347 28 44 19 26 14 54 21 38 18 72 24 2 49 357 343 338 346 331 45 331 34 31 353 336 349 319 322 316 317 316 314 310 311 317 324 318 310 309 311 315 307 295 295 267 231 170 132 113 129
55 23 13 3 22 69 64 22 8 77 38 16 82 62 75 92 66 36 12 353 24 355 30 45 44 21 347 358 319 319 316 316 314 315 305 301 307 324 320 321 313 305 314 311 308 289 290 273 255 225 145 153 143 154
45 28 11 27 34 53 57 14 350 42 45 356 12 37 64 70 327 8 14 14 11 47 43 43 37 343 302 303 306 304 296 297 302 305 310 314 321 321 319 311 304 307 310 309 301 287 315 321 308 321 165 135 136 159
32 352 12 39 48 53 71 352 43 21 326 53 347 14 48 25 25 5 10 356 58 38 31 358 323 306 301 294 290 284 285 288 289 291 296 304 316 311 306 306 308 300 316 318 323 324 313 276 252 274 69 74 70 61
0 19 51 18 54 50 71 20 353 333 7 6 7 16 30 24 355 17 345 37 57 32 344 315 316 313 309 307 305 293 289 292 295 291 288 289 301 308 311 306 308 327 328 314 315 314 315 300 19 30 83 98 89 81
27 39 46 16 53 32 331 338 34 15 17 356 349 29 19 7 1 321 73 65 66 358 333 323 316 312 306 307 312 314 320 315 312 310 311 309 299 305 306 310 311 322 327 315 313 305 296 356 53 77 80 92 101 93
35 50 40 38 25 8 344 19 8 2 16 15 0 10 3 330 319 44 74 82 280 329 338 340 335 330 324 325 324 328 325 319 314 311 308 308 321 326 317 306 315 310 323 310 312 311 4 65 78 71 81 91 88 96
64 2 45 3 3 16 20 8 351 18 9 349 358 358 345 329 20 48 7 327 338 344 344 342 338 326 317 314 321 318 317 323 318 313 308 309 323 320 335 334 337 348 348 339 336 320 14 71 82 83 85 92 97 93
65 333 55 349 353 27 336 10 16 351 331 350 3 325 330 344 39 338 327 332 330 336 338 338 330 323 321 324 318 320 327 332 323 309 285 333 341 342 340 344 340 328 330 326 321 32 78 84 90 89 79 76 81 89
50 340 331 309 101 309 355 337 337 55 5 6 340 336 5 36 312 276 302 307 326 328 329 320 316 316 314 313 312 319 321 318 299 269 273 291 360 6 340 337 340 327 335 346 16 57 82 86 87 85 85 75 71 78
155 64 5 313 333 315 15 359 34 9 354 330 352 17 111 202 263 288 284 319 325 323 322 328 326 322 321 316 321 327 342 326 323 354 11 6 14 7 355 346 343 352 22 37 46 62 72 79 83 84 82 81 78 69
29 313 140 330 316 15 48 23 355 357 339 329 330 302 267 231 239 268 305 328 326 329 333 333 337 340 338 337 332 340 356 1 6 16 18 9 356 350 348 346 354 8 17 49 72 75 76 79 81 81 79 78 76 75
322 16 7 349 31 355 294 175 274 324 275 240 228 271 260 264 255 268 309 333 341 338 328 324 323 340 340 346 339 353 5 10 4 5 357 356 337 324 337 352 6 16 25 48 59 62 63 68 72 69 71 70 69 73
312 5 354 297 277 266 321 298 255 214 229 237 203 235 267 300 309 179 272 314 308 309 315 322 326 342 345 353 358 355 350 350 349 344 11 343 342 358 359 7 19 31 38 49 57 62 71 71 69 74 72 72 71 73
8 99 84 331 297 308 355 353 302 285 267 243 248 210 248 229 260 195 202 303 309 338 332 324 325 328 331 343 351 353 324 318 331 337 12 6 7 4 358 20 35 45 51 55 56 60 64 71 74 74 75 73 72 72
332 343 277 320 308 336 356 344 311 311 293 265 261 220 242 233 269 207 160 146 263 287 318 310 301 294 303 344 5 351 345 337 348 355 7 35 37 28 27 30 39 49 56 59 60 63 67 74 74 74 74 74 72 70